User: anonymous   Login
Location: Franzen
(48.6167°N, 15.3833°E)
Time: 19:14:57
(UTC+00:00)
Language:

FENGYUN 1C DEB - Orbit

View from above orbital plane
View from above orbital plane
View from above satellite
View from above satellite

Ground track
Ground track

The orbit data is extracted from the following two-line orbital elements,

1 37040U 99025EDY 21290.00298800  .00001489  00000-0  67565-3 0  9994
2 37040  99.5528   6.8767 0083463 227.1587 132.2554 14.21799633426621
Epoch (UTC): 17 October 2021 00:04:18
Eccentricity: 0.0083463
inclination: 99.5528°
perigee height: 759 km
apogee height: 879 km
right ascension of ascending node: 6.8767°
argument of perigee: 227.1587°
revolutions per day: 14.21799633
mean anomaly at epoch: 132.2554°
orbit number at epoch: 42662

The dashed part of the orbit path shows where the satellite is in the earth's shadow,  

DLR